STARLINK-5137, 53975

Orbit data source: Space-Track

STARLINK-5137, 53975 is a payload satellite owned by SpaceX/Seattle (US) in LEO that was launched on Wed, 05 Oct 2022 UTC via an FALCON 9 launch vehicle from the Air Force Western Test Range (AFWTR). Payload-class satellites include a variety of spacecraft equipped with specific instruments for various scientific and technological missions. These include communications satellites like Starlink; space stations such as the ISS; scientific satellites like the Hubble; Earth observation satellites from companies like Planet Labs, Umbra, and HawkEye 360; GPS; miniature CubeSats for education and research; and military/defense satellites.

Loading next visibility...
Identifier
53975, 2022-125M
Orbit
LEO
Country
Flag of USUS
Related business
Manufacturer
SpaceX/Seattle
Mission
Operational Commercial Communications
Bus & Motor
STARLINK, Unknown motor
Mass
305 kg wet, ~290 kg dry
Launch date (UTC)
2022-10-05 (4 years ago)
Launch vehicle
FALCON 9
Launch site
Air Force Western Test Range (AFWTR)
Object type
Payload
Rocket body
Debris
Shape & HBR
Box + 1 Pan, 10.1 m
Radar Cross Section
13.562 m², Large (>1 m²)

Expand to show TLE details & history
Last TLE update: 3 days ago

TLE from 3 days ago
0 STARLINK-5137
1 53975U 22125M   26170.86602485  .00000164  00000-0  28393-4 0  9996
2 53975  53.1603 119.8996 0001289  86.2860 273.8279 15.08838832204822
Epoch: 2026-06-19T20:47Z
TLE epoch observation values (Epoch: 2026-06-19T20:47:04.547Z)
Latitude
0.00002°
Longitude
-99.95819°
Altitude
540.579 km
Speed
7.593 km/s
True Right ascension
07h 59m 35s
True Declination
0° 00' 00"
Sunlit
Object was in daylight at epoch
Visualization orbit readout
Latitude
Unknown
Longitude
Unknown
Altitude
Unknown
Speed
Unknown
Apparent Right ascension
Unknown
Apparent Declination
Unknown
Sunlit
N/A
Visualization observer readout
Local Sidereal Time
21:31:59
Azimuth
Unknown
Elevation
Unknown
Doppler factor
Unknown
Orbital elements
Apogee altitude
540.893 km
Perigee altitude
539.109 km
Semi-major axis
6,918.138 km
Eccentricity
0.00013
Inclination
53.1603°
RAAN
119.8996°
Arg. of periapsis
86.286°
True anomaly
273.81316°
Mean anomaly
273.8279°
Eccentric anomaly
273.82053°
Mean motion
3.77189 °/min
Orbital period
95.44 mins
BSTAR
0.000028393
Loading maneuver chart data...
Computing Atmospheric mass density...
Loading historical data...
Loading historical data...
Loading historical data...
Loading historical data...
Loading historical data...
Loading historical data...
Loading historical data...

Documentation

Showing up to 5 results
|